QPF
0.00 0.00 0.00 0.00 0.00 0.00 0.00 0.00 0.00 0.00 0.00 0.01 0.01 0.01 0.02 0.02 0.01 0.02 0.02 0.03 0.03 0.03 0.03 0.07 0.09 0.07 0.06 0.06 0.06 0.05 0.04 0.03 0.03 0.03 0.04 0.04 0.04 0.05 0.06 0.06 0.04 0.02 0.02 0.03
0.00 0.00 0.00 0.00 0.00 0.00 0.00 0.00 0.00 0.01 0.01 0.01 0.01 0.01 0.01 0.01 0.01 0.02 0.02 0.02 0.03 0.04 0.04 0.06 0.10 0.09 0.06 0.05 0.04 0.04 0.04 0.04 0.05 0.05 0.06 0.05 0.05 0.04 0.04 0.04 0.03 0.02 0.03 0.04
0.00 0.00 0.00 0.00 0.00 0.00 0.00 0.00 0.01 0.01 0.01 0.02 0.02 0.02 0.02 0.01 0.02 0.02 0.02 0.03 0.06 0.07 0.06 0.05 0.06 0.06 0.05 0.05 0.05 0.05 0.06 0.05 0.04 0.04 0.06 0.06 0.04 0.03 0.03 0.03 0.03 0.03 0.04 0.06
0.01 0.01 0.01 0.00 0.00 0.00 0.00 0.01 0.01 0.01 0.01 0.01 0.02 0.02 0.03 0.02 0.02 0.02 0.03 0.05 0.06 0.05 0.04 0.04 0.06 0.07 0.08 0.07 0.06 0.07 0.10 0.10 0.05 0.04 0.04 0.07 0.07 0.08 0.07 0.06 0.04 0.04 0.04 0.05
0.01 0.01 0.00 0.00 0.00 0.01 0.01 0.01 0.02 0.02 0.02 0.02 0.03 0.04 0.04 0.04 0.05 0.05 0.04 0.03 0.03 0.05 0.06 0.04 0.04 0.05 0.04 0.05 0.07 0.07 0.06 0.07 0.07 0.06 0.06 0.07 0.07 0.09 0.08 0.07 0.06 0.05 0.05 0.04
0.00 0.01 0.01 0.00 0.00 0.01 0.02 0.03 0.03 0.03 0.02 0.04 0.04 0.04 0.04 0.04 0.04 0.03 0.03 0.03 0.03 0.02 0.04 0.06 0.03 0.03 0.04 0.05 0.07 0.10 0.10 0.07 0.08 0.08 0.08 0.08 0.10 0.11 0.11 0.09 0.09 0.10 0.09 0.08
0.00 0.00 0.00 0.00 0.02 0.03 0.03 0.03 0.04 0.05 0.06 0.08 0.07 0.06 0.06 0.05 0.04 0.02 0.01 0.02 0.02 0.02 0.02 0.03 0.03 0.03 0.04 0.07 0.08 0.10 0.07 0.06 0.07 0.08 0.10 0.13 0.16 0.17 0.17 0.17 0.16 0.16 0.15 0.13
0.00 0.00 0.01 0.02 0.03 0.03 0.03 0.03 0.04 0.04 0.04 0.05 0.04 0.05 0.05 0.03 0.03 0.02 0.02 0.02 0.01 0.01 0.01 0.01 0.02 0.02 0.03 0.05 0.07 0.08 0.07 0.05 0.06 0.09 0.12 0.15 0.22 0.24 0.25 0.22 0.19 0.16 0.13 0.12
0.01 0.01 0.01 0.05 0.05 0.04 0.04 0.04 0.03 0.03 0.04 0.09 0.05 0.02 0.03 0.03 0.03 0.03 0.03 0.03 0.02 0.01 0.01 0.01 0.01 0.01 0.01 0.01 0.02 0.03 0.05 0.06 0.06 0.07 0.10 0.15 0.24 0.30 0.27 0.22 0.17 0.15 0.13 0.10
0.03 0.03 0.02 0.03 0.04 0.03 0.03 0.03 0.03 0.03 0.03 0.09 0.09 0.04 0.03 0.03 0.04 0.07 0.07 0.05 0.02 0.01 0.01 0.01 0.01 0.01 0.01 0.01 0.02 0.03 0.05 0.06 0.08 0.09 0.10 0.14 0.18 0.18 0.17 0.14 0.12 0.11 0.10 0.09
0.04 0.06 0.05 0.04 0.03 0.03 0.03 0.03 0.03 0.02 0.03 0.05 0.09 0.07 0.05 0.04 0.05 0.07 0.04 0.02 0.01 0.01 0.01 0.01 0.01 0.02 0.02 0.03 0.04 0.04 0.05 0.06 0.08 0.09 0.13 0.16 0.15 0.14 0.12 0.11 0.10 0.09 0.08 0.09
0.04 0.05 0.04 0.05 0.06 0.05 0.03 0.03 0.03 0.03 0.05 0.04 0.06 0.05 0.03 0.04 0.03 0.02 0.01 0.01 0.01 0.01 0.02 0.01 0.02 0.02 0.03 0.04 0.04 0.05 0.06 0.06 0.07 0.09 0.10 0.12 0.11 0.09 0.08 0.08 0.08 0.07 0.08 0.10
0.04 0.08 0.10 0.07 0.10 0.14 0.09 0.04 0.02 0.02 0.05 0.06 0.06 0.04 0.03 0.03 0.03 0.03 0.02 0.02 0.01 0.02 0.02 0.01 0.01 0.01 0.03 0.03 0.04 0.04 0.05 0.06 0.08 0.10 0.09 0.08 0.09 0.09 0.07 0.07 0.07 0.06 0.06 0.07
0.03 0.03 0.08 0.08 0.07 0.09 0.09 0.05 0.03 0.02 0.03 0.04 0.05 0.04 0.03 0.03 0.02 0.02 0.02 0.02 0.02 0.02 0.01 0.01 0.01 0.01 0.01 0.02 0.02 0.02 0.03 0.04 0.05 0.06 0.08 0.09 0.10 0.10 0.09 0.07 0.06 0.06 0.05 0.04
0.02 0.02 0.05 0.07 0.07 0.07 0.05 0.03 0.03 0.03 0.03 0.04 0.04 0.05 0.04 0.02 0.02 0.02 0.02 0.03 0.02 0.01 0.01 0.01 0.01 0.01 0.02 0.02 0.01 0.02 0.02 0.02 0.04 0.05 0.06 0.08 0.10 0.10 0.09 0.08 0.07 0.07 0.07 0.06
0.03 0.03 0.04 0.07 0.06 0.04 0.06 0.05 0.04 0.04 0.03 0.03 0.02 0.03 0.02 0.01 0.01 0.01 0.02 0.02 0.03 0.03 0.02 0.02 0.02 0.02 0.03 0.03 0.03 0.03 0.03 0.02 0.03 0.04 0.06 0.07 0.07 0.08 0.09 0.09 0.09 0.08 0.07 0.07
0.02 0.02 0.03 0.06 0.07 0.04 0.06 0.05 0.04 0.03 0.03 0.02 0.02 0.02 0.01 0.01 0.02 0.02 0.02 0.03 0.03 0.04 0.03 0.03 0.03 0.03 0.03 0.02 0.02 0.03 0.03 0.02 0.03 0.03 0.04 0.07 0.07 0.07 0.07 0.08 0.08 0.08 0.08 0.08
0.02 0.02 0.03 0.05 0.07 0.06 0.05 0.05 0.04 0.03 0.03 0.02 0.02 0.02 0.03 0.03 0.04 0.04 0.04 0.03 0.04 0.05 0.05 0.05 0.05 0.04 0.03 0.04 0.04 0.04 0.04 0.04 0.03 0.03 0.04 0.06 0.08 0.08 0.07 0.07 0.07 0.07 0.07 0.08
0.02 0.02 0.02 0.02 0.04 0.06 0.06 0.06 0.04 0.04 0.04 0.03 0.03 0.03 0.04 0.05 0.06 0.06 0.05 0.05 0.05 0.07 0.06 0.06 0.05 0.04 0.04 0.05 0.06 0.07 0.08 0.08 0.06 0.06 0.06 0.06 0.06 0.06 0.06 0.06 0.06 0.07 0.06 0.06
0.02 0.01 0.01 0.01 0.02 0.05 0.09 0.11 0.06 0.05 0.05 0.04 0.04 0.04 0.05 0.06 0.06 0.07 0.07 0.06 0.05 0.04 0.05 0.08 0.08 0.07 0.06 0.05 0.05 0.05 0.07 0.07 0.06 0.07 0.08 0.07 0.06 0.06 0.06 0.07 0.06 0.06 0.06 0.07
0.02 0.01 0.01 0.01 0.02 0.03 0.09 0.14 0.09 0.08 0.09 0.07 0.06 0.06 0.07 0.07 0.07 0.07 0.07 0.05 0.03 0.03 0.04 0.07 0.10 0.09 0.07 0.06 0.05 0.04 0.04 0.05 0.07 0.09 0.10 0.11 0.10 0.07 0.06 0.07 0.07 0.06 0.05 0.06
0.03 0.03 0.02 0.01 0.02 0.03 0.04 0.07 0.10 0.12 0.15 0.12 0.07 0.08 0.09 0.08 0.07 0.06 0.06 0.04 0.02 0.02 0.02 0.03 0.06 0.09 0.11 0.08 0.07 0.08 0.07 0.07 0.09 0.09 0.09 0.12 0.13 0.11 0.09 0.08 0.08 0.07 0.06 0.05
0.04 0.04 0.03 0.03 0.03 0.04 0.05 0.06 0.08 0.10 0.11 0.11 0.10 0.09 0.10 0.08 0.06 0.06 0.06 0.04 0.02 0.02 0.03 0.03 0.04 0.06 0.08 0.09 0.10 0.10 0.09 0.09 0.08 0.08 0.09 0.12 0.11 0.10 0.09 0.09 0.08 0.07 0.07 0.07
0.02 0.03 0.04 0.04 0.04 0.05 0.06 0.06 0.06 0.04 0.05 0.06 0.08 0.09 0.10 0.07 0.06 0.06 0.06 0.06 0.05 0.06 0.05 0.06 0.07 0.06 0.06 0.07 0.10 0.12 0.12 0.11 0.10 0.12 0.13 0.13 0.12 0.11 0.10 0.10 0.09 0.08 0.07 0.07
0.03 0.03 0.03 0.04 0.04 0.05 0.05 0.04 0.04 0.03 0.04 0.06 0.06 0.06 0.09 0.08 0.06 0.07 0.09 0.10 0.11 0.12 0.11 0.12 0.14 0.13 0.11 0.10 0.10 0.11 0.11 0.11 0.11 0.12 0.14 0.14 0.13 0.12 0.11 0.13 0.15 0.13 0.10 0.09
0.03 0.03 0.03 0.04 0.04 0.04 0.04 0.04 0.03 0.03 0.05 0.06 0.06 0.06 0.07 0.07 0.07 0.07 0.07 0.06 0.06 0.07 0.09 0.14 0.16 0.14 0.13 0.13 0.12 0.13 0.14 0.13 0.11 0.09 0.09 0.10 0.10 0.10 0.10 0.10 0.13 0.16 0.16 0.13
0.03 0.03 0.03 0.04 0.03 0.04 0.04 0.04 0.03 0.03 0.02 0.02 0.02 0.03 0.03 0.04 0.04 0.04 0.04 0.05 0.05 0.07 0.08 0.08 0.08 0.08 0.08 0.08 0.08 0.09 0.10 0.09 0.07 0.07 0.07 0.07 0.05 0.05 0.06 0.07 0.08 0.09 0.11 0.11
MSLP
1003.43 1003.31 1003.43 1003.79 1004.35 1004.99 1005.63 1006.14 1006.45 1006.49 1006.25 1005.78 1005.14 1004.43 1003.75 1003.19 1002.80 1002.59 1002.57 1002.68 1002.88 1003.12 1003.35 1003.57 1003.78 1003.99 1004.26 1004.59 1005.02 1005.53 1006.10 1006.68 1007.24 1007.73 1008.12 1008.39 1008.57 1008.69 1008.77 1008.87 1009.00 1009.20 1009.46 1009.76
1003.91 1003.85 1003.97 1004.27 1004.70 1005.20 1005.70 1006.12 1006.39 1006.49 1006.38 1006.11 1005.70 1005.22 1004.75 1004.32 1003.97 1003.72 1003.56 1003.47 1003.42 1003.39 1003.35 1003.34 1003.35 1003.41 1003.56 1003.83 1004.20 1004.67 1005.20 1005.76 1006.30 1006.79 1007.18 1007.49 1007.71 1007.88 1008.03 1008.19 1008.40 1008.65 1008.94 1009.26
1004.77 1004.81 1004.96 1005.22 1005.57 1005.95 1006.33 1006.66 1006.88 1006.99 1006.96 1006.81 1006.56 1006.25 1005.91 1005.56 1005.23 1004.92 1004.63 1004.34 1004.06 1003.77 1003.51 1003.27 1003.10 1003.02 1003.05 1003.22 1003.51 1003.91 1004.39 1004.90 1005.40 1005.87 1006.26 1006.59 1006.86 1007.10 1007.33 1007.57 1007.84 1008.15 1008.48 1008.82
1005.96 1006.10 1006.30 1006.54 1006.82 1007.11 1007.38 1007.60 1007.76 1007.83 1007.82 1007.73 1007.56 1007.34 1007.07 1006.76 1006.42 1006.05 1005.64 1005.20 1004.74 1004.27 1003.82 1003.42 1003.10 1002.89 1002.81 1002.88 1003.09 1003.41 1003.80 1004.24 1004.69 1005.11 1005.49 1005.83 1006.14 1006.43 1006.73 1007.05 1007.39 1007.75 1008.12 1008.47
1007.36 1007.57 1007.79 1008.02 1008.24 1008.43 1008.59 1008.71 1008.77 1008.78 1008.74 1008.64 1008.50 1008.31 1008.07 1007.77 1007.42 1007.01 1006.53 1006.00 1005.44 1004.86 1004.30 1003.79 1003.38 1003.09 1002.93 1002.91 1003.03 1003.25 1003.56 1003.91 1004.27 1004.64 1004.99 1005.32 1005.64 1005.98 1006.32 1006.69 1007.08 1007.48 1007.86 1008.21
1008.80 1009.03 1009.26 1009.45 1009.59 1009.69 1009.74 1009.74 1009.69 1009.62 1009.51 1009.38 1009.23 1009.04 1008.80 1008.52 1008.17 1007.75 1007.26 1006.71 1006.12 1005.51 1004.92 1004.39 1003.95 1003.61 1003.40 1003.32 1003.36 1003.50 1003.71 1003.96 1004.24 1004.53 1004.82 1005.12 1005.44 1005.78 1006.14 1006.53 1006.94 1007.35 1007.73 1008.06
1010.12 1010.33 1010.51 1010.63 1010.70 1010.69 1010.63 1010.52 1010.37 1010.21 1010.03 1009.85 1009.67 1009.47 1009.24 1008.98 1008.65 1008.27 1007.82 1007.31 1006.77 1006.20 1005.66 1005.16 1004.74 1004.41 1004.19 1004.08 1004.06 1004.12 1004.24 1004.39 1004.58 1004.79 1005.01 1005.26 1005.54 1005.85 1006.20 1006.57 1006.97 1007.35 1007.70 1008.00
1011.19 1011.33 1011.43 1011.48 1011.45 1011.35 1011.19 1010.98 1010.75 1010.50 1010.27 1010.04 1009.83 1009.63 1009.42 1009.19 1008.92 1008.60 1008.23 1007.82 1007.37 1006.90 1006.45 1006.03 1005.67 1005.39 1005.18 1005.06 1005.00 1005.00 1005.05 1005.13 1005.23 1005.35 1005.50 1005.68 1005.90 1006.16 1006.46 1006.79 1007.13 1007.46 1007.77 1008.02
1011.95 1012.00 1012.01 1011.97 1011.85 1011.67 1011.43 1011.15 1010.85 1010.56 1010.28 1010.03 1009.81 1009.62 1009.44 1009.25 1009.05 1008.82 1008.55 1008.24 1007.91 1007.56 1007.22 1006.91 1006.63 1006.40 1006.23 1006.12 1006.04 1006.01 1006.00 1006.02 1006.05 1006.10 1006.18 1006.29 1006.44 1006.63 1006.86 1007.12 1007.39 1007.66 1007.90 1008.10
1012.42 1012.38 1012.30 1012.16 1011.98 1011.73 1011.44 1011.12 1010.79 1010.48 1010.19 1009.93 1009.72 1009.55 1009.40 1009.26 1009.12 1008.97 1008.80 1008.60 1008.38 1008.15 1007.91 1007.70 1007.50 1007.33 1007.20 1007.10 1007.03 1006.98 1006.94 1006.92 1006.90 1006.90 1006.92 1006.97 1007.05 1007.17 1007.33 1007.51 1007.70 1007.90 1008.08 1008.22
1012.67 1012.53 1012.38 1012.18 1011.95 1011.67 1011.36 1011.03 1010.70 1010.39 1010.10 1009.86 1009.67 1009.51 1009.40 1009.30 1009.22 1009.13 1009.03 1008.91 1008.78 1008.63 1008.48 1008.34 1008.20 1008.08 1007.99 1007.91 1007.84 1007.79 1007.74 1007.70 1007.66 1007.64 1007.62 1007.63 1007.66 1007.72 1007.81 1007.92 1008.04 1008.17 1008.29 1008.39
1012.78 1012.58 1012.37 1012.15 1011.89 1011.60 1011.30 1010.99 1010.68 1010.39 1010.12 1009.90 1009.73 1009.59 1009.50 1009.43 1009.37 1009.32 1009.26 1009.19 1009.11 1009.01 1008.91 1008.81 1008.71 1008.62 1008.54 1008.47 1008.42 1008.38 1008.34 1008.30 1008.27 1008.24 1008.21 1008.20 1008.21 1008.23 1008.27 1008.32 1008.39 1008.47 1008.55 1008.62
1012.85 1012.63 1012.40 1012.16 1011.90 1011.63 1011.35 1011.07 1010.79 1010.53 1010.30 1010.09 1009.93 1009.81 1009.72 1009.66 1009.61 1009.57 1009.53 1009.47 1009.41 1009.33 1009.24 1009.15 1009.06 1008.98 1008.90 1008.85 1008.80 1008.77 1008.74 1008.73 1008.71 1008.70 1008.70 1008.69 1008.69 1008.70 1008.71 1008.74 1008.77 1008.82 1008.87 1008.92
1012.97 1012.73 1012.50 1012.27 1012.04 1011.79 1011.55 1011.30 1011.06 1010.82 1010.61 1010.42 1010.27 1010.15 1010.05 1009.99 1009.93 1009.89 1009.84 1009.78 1009.71 1009.63 1009.53 1009.43 1009.33 1009.24 1009.16 1009.10 1009.06 1009.04 1009.04 1009.04 1009.06 1009.08 1009.10 1009.12 1009.14 1009.15 1009.16 1009.18 1009.20 1009.23 1009.26 1009.31
1013.15 1012.93 1012.71 1012.51 1012.30 1012.09 1011.87 1011.66 1011.44 1011.23 1011.03 1010.85 1010.70 1010.57 1010.47 1010.39 1010.33 1010.27 1010.21 1010.14 1010.06 1009.96 1009.85 1009.74 1009.62 1009.51 1009.42 1009.35 1009.31 1009.29 1009.30 1009.33 1009.38 1009.43 1009.49 1009.54 1009.59 1009.62 1009.64 1009.66 1009.68 1009.70 1009.74 1009.78
1013.41 1013.21 1013.02 1012.84 1012.66 1012.48 1012.29 1012.10 1011.90 1011.71 1011.52 1011.34 1011.19 1011.06 1010.95 1010.87 1010.79 1010.73 1010.66 1010.59 1010.50 1010.39 1010.27 1010.13 1010.00 1009.87 1009.76 1009.67 1009.62 1009.60 1009.62 1009.67 1009.74 1009.82 1009.91 1009.99 1010.06 1010.12 1010.16 1010.19 1010.21 1010.23 1010.26 1010.30
1013.73 1013.55 1013.39 1013.24 1013.09 1012.94 1012.77 1012.60 1012.41 1012.23 1012.04 1011.87 1011.71 1011.58 1011.47 1011.39 1011.32 1011.26 1011.19 1011.12 1011.03 1010.91 1010.79 1010.64 1010.49 1010.34 1010.21 1010.11 1010.04 1010.02 1010.03 1010.08 1010.16 1010.26 1010.37 1010.47 1010.56 1010.64 1010.69 1010.73 1010.76 1010.77 1010.79 1010.82
1014.07 1013.93 1013.80 1013.68 1013.56 1013.42 1013.28 1013.12 1012.94 1012.76 1012.58 1012.41 1012.26 1012.13 1012.03 1011.95 1011.88 1011.83 1011.77 1011.71 1011.63 1011.52 1011.39 1011.24 1011.07 1010.91 1010.76 1010.64 1010.56 1010.51 1010.51 1010.55 1010.63 1010.73 1010.85 1010.96 1011.07 1011.15 1011.21 1011.25 1011.27 1011.27 1011.27 1011.28
1014.41 1014.31 1014.22 1014.13 1014.03 1013.92 1013.79 1013.64 1013.47 1013.30 1013.13 1012.96 1012.81 1012.69 1012.59 1012.51 1012.46 1012.41 1012.37 1012.31 1012.23 1012.13 1012.00 1011.85 1011.68 1011.51 1011.34 1011.20 1011.10 1011.03 1011.01 1011.04 1011.11 1011.20 1011.31 1011.42 1011.52 1011.61 1011.66 1011.69 1011.69 1011.68 1011.65 1011.62
1014.74 1014.67 1014.62 1014.55 1014.48 1014.39 1014.28 1014.14 1013.99 1013.82 1013.65 1013.49 1013.34 1013.22 1013.12 1013.05 1012.99 1012.95 1012.91 1012.85 1012.77 1012.67 1012.54 1012.38 1012.21 1012.03 1011.85 1011.70 1011.58 1011.50 1011.46 1011.47 1011.52 1011.60 1011.70 1011.80 1011.89 1011.96 1012.00 1012.02 1012.00 1011.96 1011.89 1011.82
1015.03 1015.01 1014.98 1014.95 1014.89 1014.82 1014.72 1014.59 1014.45 1014.29 1014.12 1013.96 1013.81 1013.69 1013.58 1013.50 1013.43 1013.38 1013.32 1013.25 1013.17 1013.06 1012.92 1012.76 1012.58 1012.39 1012.22 1012.06 1011.93 1011.84 1011.80 1011.79 1011.83 1011.90 1011.98 1012.06 1012.14 1012.19 1012.22 1012.22 1012.18 1012.11 1012.01 1011.90
1015.29 1015.29 1015.28 1015.26 1015.22 1015.16 1015.07 1014.95 1014.81 1014.65 1014.49 1014.33 1014.18 1014.04 1013.92 1013.81 1013.72 1013.64 1013.56 1013.47 1013.36 1013.24 1013.09 1012.93 1012.75 1012.57 1012.40 1012.25 1012.13 1012.04 1011.99 1011.99 1012.02 1012.07 1012.14 1012.21 1012.27 1012.31 1012.33 1012.31 1012.25 1012.16 1012.04 1011.90
1015.48 1015.49 1015.49 1015.47 1015.43 1015.37 1015.28 1015.17 1015.03 1014.87 1014.71 1014.54 1014.38 1014.22 1014.08 1013.95 1013.83 1013.71 1013.60 1013.48 1013.35 1013.21 1013.06 1012.89 1012.73 1012.56 1012.41 1012.28 1012.18 1012.11 1012.07 1012.07 1012.09 1012.14 1012.20 1012.26 1012.31 1012.34 1012.35 1012.31 1012.25 1012.15 1012.02 1011.87
1015.58 1015.59 1015.58 1015.55 1015.50 1015.42 1015.32 1015.20 1015.06 1014.91 1014.74 1014.57 1014.40 1014.23 1014.07 1013.91 1013.76 1013.62 1013.47 1013.33 1013.18 1013.03 1012.87 1012.72 1012.57 1012.43 1012.31 1012.20 1012.13 1012.08 1012.06 1012.07 1012.09 1012.14 1012.19 1012.24 1012.28 1012.30 1012.30 1012.27 1012.21 1012.12 1012.00 1011.85
1015.58 1015.56 1015.52 1015.46 1015.38 1015.29 1015.18 1015.05 1014.91 1014.76 1014.59 1014.42 1014.25 1014.07 1013.90 1013.73 1013.56 1013.40 1013.23 1013.07 1012.92 1012.77 1012.62 1012.49 1012.36 1012.25 1012.16 1012.09 1012.04 1012.02 1012.01 1012.02 1012.05 1012.09 1012.13 1012.16 1012.19 1012.21 1012.21 1012.19 1012.15 1012.08 1011.99 1011.87
1015.45 1015.39 1015.31 1015.21 1015.11 1014.99 1014.87 1014.74 1014.60 1014.45 1014.30 1014.14 1013.98 1013.82 1013.65 1013.48 1013.31 1013.14 1012.98 1012.82 1012.67 1012.53 1012.40 1012.28 1012.19 1012.11 1012.04 1012.00 1011.97 1011.95 1011.95 1011.96 1011.97 1011.99 1012.01 1012.03 1012.04 1012.05 1012.05 1012.05 1012.03 1012.00 1011.95 1011.88
1015.19 1015.08 1014.96 1014.84 1014.71 1014.57 1014.44 1014.31 1014.19 1014.07 1013.94 1013.81 1013.67 1013.54 1013.39 1013.24 1013.09 1012.93 1012.78 1012.64 1012.50 1012.38 1012.27 1012.17 1012.10 1012.03 1011.98 1011.95 1011.92 1011.89 1011.87 1011.86 1011.84 1011.83 1011.82 1011.81 1011.80 1011.80 1011.80 1011.81 1011.82 1011.83 1011.84 1011.83
Thickness
5741 5753 5761 5764 5770 5775 5767 5760 5749 5754 5760 5773 5783 5789 5793 5795 5796 5798 5799 5800 5800 5800 5802 5803 5802 5800 5798 5798 5797 5795 5791 5787 5786 5785 5783 5781 5779 5777 5775 5772 5771 5768 5765 5761
5730 5745 5750 5753 5763 5767 5766 5764 5760 5759 5756 5775 5782 5786 5786 5787 5789 5788 5789 5791 5792 5793 5792 5793 5793 5792 5790 5790 5790 5788 5785 5782 5782 5780 5778 5776 5774 5772 5770 5767 5765 5762 5759 5757
5705 5726 5733 5725 5746 5754 5753 5757 5756 5747 5754 5767 5768 5773 5775 5778 5781 5781 5781 5782 5783 5782 5784 5785 5785 5785 5783 5783 5782 5780 5777 5775 5774 5773 5771 5770 5769 5765 5763 5761 5759 5755 5753 5751
5691 5703 5693 5718 5748 5753 5747 5746 5752 5753 5757 5762 5763 5767 5771 5772 5772 5773 5774 5774 5775 5776 5777 5778 5778 5777 5777 5776 5773 5771 5768 5766 5765 5765 5764 5763 5761 5759 5757 5755 5752 5749 5746 5744
5675 5678 5689 5716 5735 5739 5731 5722 5738 5742 5747 5752 5758 5757 5756 5764 5767 5767 5768 5768 5769 5769 5769 5768 5767 5768 5767 5764 5763 5762 5760 5760 5759 5759 5757 5755 5754 5753 5752 5749 5745 5742 5739 5736
5669 5670 5671 5699 5727 5739 5727 5704 5727 5733 5736 5741 5744 5729 5735 5752 5759 5760 5761 5762 5761 5761 5760 5758 5758 5759 5757 5754 5752 5751 5752 5753 5752 5752 5750 5748 5747 5746 5745 5742 5739 5735 5731 5729
5661 5661 5673 5702 5721 5725 5695 5695 5718 5723 5727 5729 5727 5727 5736 5744 5747 5749 5750 5752 5752 5751 5748 5748 5748 5747 5744 5742 5742 5744 5745 5745 5744 5744 5742 5740 5738 5736 5734 5731 5728 5725 5723 5721
5652 5651 5661 5699 5704 5695 5692 5706 5712 5716 5720 5721 5722 5727 5732 5734 5734 5736 5736 5737 5739 5738 5737 5738 5739 5736 5733 5732 5735 5736 5736 5734 5734 5734 5733 5732 5728 5726 5724 5721 5718 5716 5714 5713
5652 5656 5673 5688 5692 5695 5698 5699 5703 5707 5712 5715 5715 5717 5720 5721 5723 5725 5726 5726 5727 5726 5725 5725 5726 5725 5722 5724 5725 5725 5724 5723 5723 5723 5722 5721 5718 5716 5714 5712 5710 5708 5707 5704
5650 5658 5669 5677 5683 5688 5692 5694 5698 5702 5706 5708 5707 5708 5709 5710 5711 5713 5715 5715 5716 5714 5712 5712 5713 5713 5713 5714 5714 5713 5712 5711 5711 5710 5709 5709 5707 5706 5704 5702 5700 5698 5697 5694
5641 5652 5660 5668 5673 5678 5683 5687 5690 5695 5698 5700 5699 5698 5699 5699 5700 5702 5703 5705 5705 5702 5700 5700 5702 5702 5703 5703 5702 5700 5699 5699 5699 5698 5697 5696 5696 5694 5693 5693 5692 5690 5689 5687
5634 5645 5646 5654 5666 5673 5674 5677 5680 5684 5686 5689 5689 5688 5689 5688 5689 5691 5691 5692 5692 5691 5690 5690 5691 5691 5692 5692 5690 5688 5687 5687 5686 5685 5685 5684 5683 5682 5682 5683 5683 5682 5681 5680
5641 5647 5648 5654 5661 5666 5666 5670 5674 5676 5676 5677 5678 5678 5678 5677 5678 5678 5679 5679 5680 5679 5679 5679 5679 5679 5680 5679 5678 5677 5676 5675 5674 5674 5673 5672 5672 5670 5669 5669 5670 5669 5669 5669
5642 5642 5640 5645 5649 5657 5659 5662 5665 5667 5668 5669 5669 5668 5666 5665 5665 5666 5667 5668 5668 5668 5668 5668 5668 5668 5669 5668 5667 5666 5665 5665 5664 5663 5663 5662 5662 5661 5661 5659 5657 5656 5656 5656
5635 5636 5634 5639 5644 5648 5650 5652 5653 5654 5655 5656 5657 5657 5656 5654 5654 5655 5657 5658 5658 5658 5658 5657 5657 5657 5658 5657 5656 5655 5654 5654 5653 5653 5653 5652 5652 5651 5651 5649 5646 5645 5644 5643
5628 5631 5632 5633 5635 5638 5640 5642 5641 5643 5645 5646 5646 5645 5646 5646 5645 5646 5647 5647 5646 5645 5646 5646 5646 5647 5648 5647 5646 5645 5645 5646 5645 5644 5643 5642 5642 5641 5639 5638 5636 5635 5635 5634
5619 5619 5622 5624 5627 5629 5632 5633 5634 5635 5636 5637 5636 5636 5636 5636 5635 5635 5636 5637 5637 5636 5636 5636 5636 5637 5637 5637 5636 5636 5635 5635 5636 5634 5633 5633 5633 5631 5630 5628 5627 5627 5626 5626
5619 5619 5620 5620 5621 5623 5624 5627 5628 5628 5628 5629 5629 5628 5627 5626 5625 5626 5628 5629 5629 5628 5628 5628 5628 5628 5628 5628 5627 5627 5626 5625 5625 5624 5624 5624 5623 5622 5622 5620 5619 5618 5616 5615
5617 5617 5618 5619 5618 5619 5619 5619 5620 5620 5621 5621 5620 5619 5619 5619 5619 5619 5620 5620 5619 5618 5620 5620 5619 5619 5619 5620 5621 5619 5617 5617 5617 5617 5616 5616 5615 5614 5613 5612 5611 5609 5608 5606
5612 5613 5613 5613 5614 5614 5614 5614 5614 5613 5614 5614 5613 5612 5612 5612 5613 5613 5612 5612 5612 5613 5613 5612 5611 5611 5612 5613 5613 5612 5611 5610 5609 5608 5608 5607 5607 5606 5605 5604 5603 5601 5600 5598
5606 5606 5606 5607 5608 5609 5610 5610 5608 5607 5607 5607 5606 5605 5605 5606 5606 5606 5605 5605 5606 5607 5606 5606 5605 5604 5605 5605 5606 5605 5604 5603 5602 5602 5601 5600 5599 5598 5597 5596 5595 5593 5592 5590
5600 5600 5600 5601 5602 5603 5604 5604 5603 5602 5601 5601 5601 5601 5600 5599 5600 5600 5600 5600 5601 5601 5600 5599 5599 5599 5599 5599 5598 5597 5597 5596 5596 5595 5594 5593 5591 5590 5589 5588 5587 5586 5585 5584
5595 5595 5595 5596 5597 5597 5598 5598 5598 5597 5596 5596 5596 5596 5595 5595 5595 5594 5594 5595 5595 5595 5595 5594 5595 5595 5594 5593 5591 5591 5591 5590 5590 5589 5588 5586 5585 5584 5582 5581 5580 5580 5578 5576
5591 5591 5591 5592 5593 5592 5592 5592 5593 5593 5592 5592 5592 5592 5591 5590 5590 5590 5590 5589 5589 5589 5589 5588 5589 5590 5589 5588 5586 5585 5584 5583 5583 5583 5582 5580 5579 5577 5576 5575 5574 5573 5571 5570
5589 5589 5589 5588 5587 5586 5587 5587 5588 5588 5587 5586 5586 5587 5586 5586 5585 5585 5586 5585 5584 5583 5584 5584 5585 5585 5584 5582 5581 5580 5579 5578 5577 5577 5576 5574 5573 5572 5570 5568 5567 5566 5565 5564
5585 5585 5585 5585 5585 5584 5584 5584 5583 5583 5582 5581 5581 5582 5582 5582 5582 5581 5581 5581 5580 5579 5578 5578 5578 5578 5577 5577 5576 5575 5574 5573 5572 5571 5570 5568 5567 5566 5564 5563 5561 5560 5558 5557
5582 5582 5581 5581 5582 5582 5582 5580 5579 5579 5579 5577 5576 5577 5577 5577 5577 5577 5576 5576 5575 5574 5573 5572 5572 5571 5571 5570 5570 5569 5568 5567 5566 5565 5563 5561 5560 5558 5557 5556 5554 5553 5552 5551